Zurück zum Katalog

FREJA

AktivWissenschaftLEO
NORAD 22161·PAYLOAD·🇸🇪 Sweden

Gestartet Oct 6, 1992 von Jiuquan Satellite Launch Center

Loading…

Nächste Überflüge (nächste 24 Stunden)

TLE

AktuellSource: Space-Track

Epoche: Sep 14, 2026, 06:08 UTC

1 22161U 92064A   26257.25563112  .00000094  00000-0  90697-4 0  9998
2 22161  63.0021  12.8779 0725287 248.6635 103.5515 13.32874755645836

Verfolge FREJA in Echtzeit mit AllMySat

Download on the App Store